Location: Go�ngahuizen
(53.0821°N, 5.8849°E)
Time: 00:31:09
(UTC+00:00)

Cosmos 1400 Rocket - Pass Details

Date: 09 April 2020
Orbit: 522 x 567 km, 81.2° (Epoch: 30 May)

Event Time Altitude Azimuth Distance (km) Brightness Sun altitude
Exits shadow 23:13:06 32° 330° (NNW) 951 4.5 -28.7°
Drops below altitude 10° 23:15:42 10° 1° (N) 1,803 6.4 -28.7°
Sets 23:17:57 0° 9° (N) 2,692 7.5 -28.7°
